Location: Sungai Apap
(2.6167°N, 113.3833°E)
Time: 14:46:08
(UTC+00:00)

ATLAS 5 CENTAUR R/B - Pass Details

Date: 25 May 2024
Orbit: 256 x 11817 km, 20.2° (Epoch: 11 June)

Event Time Altitude Azimuth Distance (km) Brightness Sun altitude
Rises 19:07:27 0° 290° (WNW) 14,370 7.7 -43.4°
Reaches altitude 10° 19:25:37 10° 288° (WNW) 10,817 7.0 -39.5°
Enters shadow 19:39:46 23° 285° (WNW) 7,127 6.0 -36.4°
Exits shadow 19:52:57 52° 264° (W) 2,969 4.0 -33.5°
Maximum altitude 19:56:35 67° 209° (SSW) 2,036 3.3 -32.7°
Drops below altitude 10° 20:02:58 10° 126° (SE) 2,674 4.6 -31.3°
Sets 20:04:31 0° 122° (ESE) 3,224 5.1 -31.0°
